This demonstration page uses our WeatherBlox Daily Observations layout. Learn more.

Left ArrowRight Arrow

Hourly Observations for November 26, 2022

Temp ( °F °C ) Dew Point ( °F °C ) Humidity (%) Winds ( mph kmh ) Pressure ( in mb ) Visibility ( mi km ) Precip ( " mm )
12:55 am 00:55 Clear 35 1.6 28 -2 77 77 SSW 3 6 30.16 1021 10 16 0.00 0.00
1:55 am 01:55 Mostly Clear 35 1.9 29 -1.5 78 78 S 3 6 30.14 1021 10 16 0.00 0.00
2:55 am 02:55 Hazy 37 2.7 30 -1.3 75 75 SSE 3 6 30.10 1019 3 5 0.00 0.00
3:55 am 03:55 Clear 37 3 31 -0.8 76 76 SSE 7 11 30.07 1018 10 16 0.00 0.00
4:55 am 04:55 Clear 39 3.7 31 -0.5 74 74 SSE 6 9 30.03 1017 10 16 0.00 0.00
5:55 am 05:55 Cloudy 38 3.2 31 -0.3 78 78 S 6 9 30.04 1017 10 16 0.00 0.00
6:55 am 06:55 Partly Cloudy 40 4.3 33 0.6 77 77 SSE 9 15 30.03 1017 10 16 0.00 0.00
7:55 am 07:55 Partly Cloudy 40 4.4 34 1.1 79 79 SSE 3 6 29.97 1015 10 16 0.00 0.00
8:55 am 08:55 Partly Cloudy 41 5.1 35 1.6 78 78 Calm 29.96 1015 10 16 0.00 0.00
9:40 am 09:40 Cloudy 43 6 37 3 81 81 NE 5 7 29.94 1014 10 16 0.00 0.00
9:55 am 09:55 Mostly Cloudy 43 6.1 36 2.2 76 76 NE 6 9 29.93 1013 10 16 0.00 0.00
10:05 am 10:05 Mostly Cloudy 43 6 37 3 81 81 NNE 6 9 29.93 1013 10 16 0.00 0.00
10:40 am 10:40 Cloudy 45 7 37 3 76 76 SSE 7 11 29.97 1015 10 16 0.00 0.00
10:55 am 10:55 Cloudy 44 6.9 38 3.1 77 77 SSE 6 9 29.97 1015 10 16 0.00 0.00
11:27 am 11:27 Cloudy with Light Rain 45 7 39 4 81 81 Calm 29.93 1013 10 16 0.00 0.00
11:55 am 11:55 Cloudy with Light Rain 45 7.2 40 4.7 84 84 N 7 11 29.87 1012 10 16 0.01 0.13
12:15 pm 12:15 Cloudy with Light Rain 45 7 41 5 87 87 N 6 9 29.85 1011 10 16 0.00 0.00
12:20 pm 12:20 Cloudy with Light Rain 45 7 41 5 87 87 N 8 13 29.85 1011 10 16 0.00 0.00
12:25 pm 12:25 Cloudy with Light Rain 45 7 43 6 93 93 N 7 11 29.83 1010 10 16 0.00 0.00
12:35 pm 12:35 Cloudy with Light Rain 45 7 43 6 93 93 N 8 13 29.82 1010 10 16 0.00 0.00
12:55 pm 12:55 Mostly Cloudy with Light Rain 46 7.7 42 5.8 88 88 N 6 9 29.80 1009 10 16 0.01 0.25
1:00 pm 13:00 Mostly Cloudy with Light Rain 46 8 43 6 87 87 N 6 9 29.80 1009 10 16 0.00 0.00
1:55 pm 13:55 Cloudy with Drizzle 47 8.3 45 7.2 93 93 NE 10 17 29.75 1007 10 16 0.01 0.25
1:56 pm 13:56 Cloudy 46 8 45 7 93 93 NE 10 17 29.75 1007 10 16 0.00 0.00
2:16 pm 14:16 Cloudy 46 8 45 7 93 93 NE 10 17 29.73 1007 10 16 0.00 0.00
2:55 pm 14:55 Cloudy 46 8 44 6.6 91 91 NNE 6 9 29.73 1007 10 16 0.00 0.00
3:55 pm 15:55 Cloudy 46 7.9 44 6.5 91 91 N 8 13 29.71 1006 10 16 0.00 0.00
3:58 pm 15:58 Cloudy with Light Rain 46 8 45 7 93 93 N 9 15 29.70 1006 10 16 0.00 0.00
4:13 pm 16:13 Cloudy with Rain 46 8 45 7 93 93 N 7 11 29.71 1006 6 10 0.00 0.00
4:30 pm 16:30 Cloudy with Rain 46 8 45 7 93 93 NNE 6 9 29.71 1006 5 8 0.00 0.00
4:50 pm 16:50 Cloudy with Rain 46 8 45 7 93 93 NNE 3 6 29.69 1006 4 6 0.00 0.00
4:55 pm 16:55 Cloudy with Rain 45 7.4 44 6.8 96 96 NNE 8 13 29.68 1005 4 6 0.11 2.79
5:11 pm 17:11 Sunny with Light Rain 45 7 45 7 100 100 NNE 20 31 29.63 1004 8 13 0.00 0.00
5:47 pm 17:47 Cloudy 46 8 45 7 93 93 NNE 12 19 29.65 1004 10 16 0.00 0.00
5:55 pm 17:55 Cloudy 45 7.4 44 6.7 95 95 NNE 12 19 29.65 1004 10 16 0.02 0.51
6:28 pm 18:28 Cloudy 45 7 45 7 100 100 NE 13 20 29.64 1004 10 16 0.00 0.00
6:58 pm 18:58 Cloudy with Drizzle 45 7 45 7 100 100 NE 10 17 29.66 1004 10 16 0.00 0.00
7:13 pm 19:13 Cloudy with Light Rain 45 7 45 7 100 100 NNE 12 19 29.64 1004 4 6 0.00 0.00
7:28 pm 19:28 Cloudy with Heavy Rain 45 7 43 6 93 93 N 14 22 29.63 1003 5 8 0.00 0.00
7:48 pm 19:48 Cloudy with Light Rain 45 7 45 7 100 100 NNE 13 20 29.63 1003 6 10 0.00 0.00
7:55 pm 19:55 Cloudy with Rain 44 6.9 44 6.5 97 97 NNE 13 20 29.63 1003 6 10 0.10 2.54
8:30 pm 20:30 Cloudy with Light Rain 45 7 43 6 93 93 NNE 13 20 29.62 1003 9 14 0.00 0.00
8:55 pm 20:55 Cloudy with Rain 44 6.7 43 6.1 96 96 NNE 13 20 29.61 1003 9 14 0.06 1.52
9:00 pm 21:00 Cloudy with Rain 45 7 43 6 93 93 NNE 12 19 29.61 1003 8 13 0.00 0.00
9:55 pm 21:55 Cloudy with Rain 44 6.7 43 6.3 97 97 NNE 12 19 29.62 1003 5 8 0.11 2.79
10:25 pm 22:25 Partly Cloudy with Rain 45 7 43 6 93 93 NNE 12 19 29.61 1003 5 8 0.00 0.00
10:35 pm 22:35 Mostly Cloudy with Rain 45 7 43 6 93 93 NNE 13 20 29.61 1003 7 11 0.00 0.00
10:45 pm 22:45 Mostly Cloudy with Rain 45 7 43 6 93 93 NNE 12 19 29.61 1003 7 11 0.00 0.00
10:55 pm 22:55 Cloudy with Rain 44 6.8 44 6.4 97 97 NNE 13 20 29.61 1003 8 13 0.09 2.29
11:00 pm 23:00 Cloudy with Rain 45 7 43 6 93 93 N 10 17 29.61 1003 8 13 0.00 0.00
11:20 pm 23:20 Cloudy with Light Rain 45 7 43 6 93 93 NNE 10 17 29.60 1002 10 16 0.00 0.00
11:30 pm 23:30 Cloudy with Light Rain 45 7 43 6 93 93 N 9 15 29.60 1002 10 16 0.00 0.00
11:55 pm 23:55 Cloudy with Light Rain 44 6.5 43 5.9 96 96 N 12 19 29.61 1003 10 16 0.01 0.25

Powered by AerisWeather